Location: Mentone
(34.5413°N, 85.5351°W)
Time: 14:29:45
(UTC-05:00)

Transit 2A Rocket - Visible Passes

Search period start: 26 April 2017 00:00
Search period end: 06 May 2017 00:00
Orbit: 594 x 910 km, 66.7° (Epoch: 25 April)

Date Brightness Start Highest point End Pass type
(mag) Time Alt. Az. Time Alt. Az. Time Alt. Az.
26 Apr 6.0 20:33:05 10° NW 20:37:38 41° WSW 20:42:35 10° S visible
27 Apr 5.1 19:50:29 10° NNW 19:55:19 78° WSW 20:00:36 10° SSE visible
28 Apr 7.6 20:52:29 10° WNW 20:55:09 14° WSW 20:57:54 10° SW visible
29 Apr 6.9 20:08:49 10° NW 20:12:56 27° WSW 20:17:22 10° SSW visible
